Home > Weather > Onex > Past weeks

Flag for Switzerland Weather for the Past 2 Weeks in Onex, Geneva, Switzerland

Now
54 °F

Clear.


Feels Like: 49 °F
Forecast: 35 / 45 °F
Wind: 15 mph from Southwest

Location: Geneva Cointrin Airport

Current Time: Feb 7, 2016 at 12:59:39 AM

Latest Report: Feb 7, 2016 at 12:20 AM


Visibility: 10 mi

Pressure: 29.80 "Hg

Humidity: 47%

Dew point: 34 °F

Location of OnexLocation

Historic Weather in Onex — Graph

°F

Onex Temperature Yesterday

Maximum temperature yesterday: 54 °F (at 4:50 PM)
Minimum temperature yesterday: 34 °F (at 6:20 AM)
Average temperature yesterday: 39 °F

High & Low Weather Summary for the Past Weeks

 TemperatureHumidityPressure
High59 °F (Feb 1, 2:20 PM)100% (Jan 24, 3:20 AM)30.60 "Hg (Jan 24, 3:20 AM)
Low28 °F (Jan 24, 12:50 AM)50% (Jan 25, 3:20 PM)29.80 "Hg (Feb 6, 10:50 PM)
Average43 °F81%30.36 "Hg
* Reported Jan 22 11:20 PM — Feb 6 11:20 PM, Onex, Weather by CustomWeather, © 2016

Note: Actual official high and low records may vary slightly from our data, if they occured in-between our weather recording intervals... More about our weather records

Advertising

Onex Weather History for the Previous 24 Hours

 ConditionsComfort  
Time TempWeatherWind HumidityBarometerVisibility
11:20 PM
Sat, Feb 6
50 °FClear.10 mph58%29.80 "Hg10 mi
10:50 PM37 °FPassing clouds.6 mph93%29.80 "HgN/A
9:50 PM37 °FClear.2 mph93%29.83 "Hg10 mi
9:20 PM41 °FClear.3 mph87%29.83 "Hg10 mi
8:50 PM37 °FClear.2 mph100%29.86 "Hg10 mi
8:20 PM39 °FClear.2 mph93%29.86 "Hg10 mi
7:50 PM39 °FClear.1 mph93%29.89 "Hg10 mi
7:20 PM41 °FClear.2 mph93%29.89 "Hg10 mi
6:50 PM43 °FClear.2 mph87%29.89 "Hg10 mi
6:20 PM43 °FClear.2 mph87%29.92 "Hg10 mi
5:50 PM45 °FClear.3 mph87%29.92 "Hg10 mi
5:20 PM45 °FPartly sunny.2 mph87%29.92 "HgN/A
4:50 PM54 °FPartly sunny.13 mph67%29.95 "HgN/A
4:20 PM46 °FPassing clouds.12 mph87%29.98 "HgN/A
3:50 PM48 °FSunny.3 mph87%29.98 "Hg10 mi
3:20 PM45 °FPassing clouds.5 mph93%30.01 "HgN/A
2:50 PM45 °FSunny.3 mph93%30.01 "Hg10 mi
2:20 PM45 °FPassing clouds.5 mph87%30.04 "HgN/A
1:50 PM41 °FPassing clouds.5 mph100%30.07 "HgN/A
1:20 PM43 °FPassing clouds.5 mph93%30.09 "HgN/A
12:50 PM41 °FQuite cool.6 mph93%30.09 "HgN/A
12:20 PM39 °FChilly.5 mph100%30.12 "Hg6 mi
11:50 AM41 °FFog.3 mph100%30.15 "Hg6 mi
11:20 AM41 °FLight fog.3 mph93%30.15 "Hg6 mi
10:50 AM39 °FLight fog.3 mph93%30.18 "Hg1 mi
10:20 AM37 °FFog.1 mph93%30.18 "Hg0 mi
9:50 AM36 °FFog.2 mph100%30.18 "Hg0 mi
9:20 AM36 °FFog.1 mph93%30.18 "Hg0 mi
8:50 AM34 °FFog.1 mph100%30.18 "Hg0 mi
8:20 AM34 °FFog.3 mph100%30.18 "Hg0 mi
7:50 AM34 °FFog.3 mph100%30.18 "Hg0 mi
7:20 AM34 °FFog.2 mph100%30.18 "Hg0 mi
6:50 AM34 °FFog.2 mph100%30.18 "Hg0 mi
6:20 AM34 °FFog.3 mph100%30.18 "Hg0 mi
5:50 AM36 °FFog.2 mph93%30.21 "Hg0 mi
5:20 AM36 °FFog.1 mph100%30.21 "Hg0 mi
4:50 AM36 °FFog.2 mph100%30.21 "Hg0 mi
4:20 AM36 °FFog.1 mph100%30.21 "Hg0 mi
3:50 AM36 °FFog.1 mph100%30.21 "Hg0 mi
3:20 AM36 °FFog.2 mph100%30.21 "Hg0 mi
2:50 AM37 °FFog.2 mph93%30.24 "Hg0 mi
1:50 AM37 °FFog.3 mph93%30.24 "Hg0 mi
1:20 AM37 °FFog.3 mph93%30.24 "Hg0 mi
12:50 AM37 °FFog.2 mph93%30.27 "Hg0 mi
12:20 AM37 °FFog.2 mph100%30.27 "Hg0 mi
Weather by CustomWeather, © 2016

See weather overviewHow to use our weather pages